Regional Weather Roundup
Issued by NWS San Angelo, TX

Current Version | Previous Version | Text Only | Print | Product List | Glossary On
Versions: 1 2 3 4 5 6 7 8 9 10 11 12 13 14 15 16 17 18 19 20 21 22 23 24 25 26 27 28 29 30 31 32 33 34 35 36 37 38 39 40 41 42 43 44 45 46 47 48 49 50
000
ASUS44 KSJT 311610
RWRSJT
WEST CENTRAL TEXAS REGIONAL WEATHER ROUNDUP
NATIONAL WEATHER SERVICE SAN ANGELO TX
1100 AM CDT FRI OCT 31 2014

NOTE: "FAIR" INDICATES FEW OR NO CLOUDS BELOW 12,000 FEET WITH NO
SIGNIFICANT WEATHER AND/OR OBSTRUCTIONS TO VISIBILITY.

TXZ049-054-064>066-071>073-076>078-098-099-113-114-127-128-139-140-
154-155-168>170-311700
...LOCATIONS ACROSS WEST CENTRAL TEXAS...

CITY           SKY/WX    TMP DP  RH WIND       PRES   REMARKS
SAN ANGELO     SUNNY     66  34  30 NE14      30.39R
ABILENE        SUNNY     61  36  39 NE12      30.40S
DYESS AFB      SUNNY     60  38  44 NE14      30.39S
JUNCTION       SUNNY     69  37  30 NE16G22   30.35R
SWEETWATER     SUNNY     58  36  42 NE15      30.45R
BROWNWOOD      SUNNY     63  39  42 N12       30.38R
COLEMAN        SUNNY     62  41  45 NE17      30.39S
SONORA         SUNNY     68  36  30 NE14      30.41R
OZONA          FAIR      66  36  32 NE14G23   30.40R
BRADY          SUNNY     64  36  34 NE17      30.35S
$$

TEXAS PANHANDLE/OKLAHOMA PANHANDLE

CITY           SKY/WX    TMP DP  RH WIND       PRES   REMARKS
AMARILLO       SUNNY     50  30  46 NE12      30.48S
BORGER         SUNNY     47  31  53 NE6       30.50R
CANADIAN       SUNNY     47  35  62 NE7       30.48F
DALHART        SUNNY     46  30  53 E9        30.50R
DUMAS            N/A     46  29  51 E9        30.49S
GUYMON         NOT AVBL
HEREFORD       SUNNY     53  35  50 NE10      30.48S
PAMPA          SUNNY     46  32  57 NE6       30.49S
PERRYTON       SUNNY     45  31  60 NE10      30.49S WCI  39
$$

SOUTHERN PANHANDLE/SOUTH PLAINS/ROLLING PLAINS

CITY           SKY/WX    TMP DP  RH WIND       PRES   REMARKS
LUBBOCK        MOSUNNY   56  34  43 E15       30.44S
SNYDER         SUNNY     56  36  47 NE14G20   30.44R
CHILDRESS      SUNNY     54  35  48 NE12G22   30.47R
SEMINOLE       SUNNY     58  32  37 E13       30.45S
$$

PERMIAN BASIN

CITY           SKY/WX    TMP DP  RH WIND       PRES   REMARKS
MIDLAND        SUNNY     61  35  37 E17       30.41S
ODESSA         SUNNY     61  33  35 E18       30.42R
WINK           CLOUDY    64  35  34 E9        30.40R
$$

FAR WEST/SOUTHWEST MOUNTAINS/TRANS PECOS

CITY           SKY/WX    TMP DP  RH WIND       PRES   REMARKS
ALPINE         PTSUNNY   62  47  59 NE10      30.47S
DRYDEN           N/A     70  41  34 NE12      30.36R
EL PASO        MOSUNNY   64  36  35 E14       30.34S
FORT STOCKTON  MOSUNNY   65  36  34 E14       30.40R
GUADALUPE PASS SUNNY     55  32  41 NE33G41   30.42S
MARFA          CLOUDY    57  48  72 NE17      30.43S
PECOS          MOSUNNY   62  38  42 E9        30.41R
$$

DALLAS/FORT WORTH METROPLEX

CITY           SKY/WX    TMP DP  RH WIND       PRES   REMARKS
DFW AIRPORT    SUNNY     61  42  49 N18       30.33R
FTW MEACHAM    SUNNY     61  41  47 N13       30.34R
DAL-EXECUTIVE  SUNNY     63  42  46 N13G22    30.31R
GRAND PRAIRIE  SUNNY     61  43  51 MISG      30.34R
ADDISON        SUNNY     61  43  51 N12G18    30.33R
MESQUITE       SUNNY     61  43  51 N18G28    30.32R
LANCASTER      SUNNY     62  40  45 N15       30.33R
$$

NORTH CENTRAL TEXAS

CITY           SKY/WX    TMP DP  RH WIND       PRES   REMARKS
SHRMAN/DENISON SUNNY     57  45  63 N21G28    30.36R
GAINESVILLE    SUNNY     56  40  55 N16G23    30.37S
BRIDGEPORT     SUNNY     58  42  54 N12G17    30.40R
DENTON         SUNNY     59  41  51 N18G24    30.35R
WAXAHACHIE     SUNNY     62  44  52 N17       30.33R
GRANBURY       SUNNY     61  45  54 N13       30.37R
$$

WESTERN NORTH TEXAS

CITY           SKY/WX    TMP DP  RH WIND       PRES   REMARKS
WICHITA FALLS  SUNNY     54  39  57 NE15      30.42R
VERNON         SUNNY     55  37  50 N12G18    30.46R
BRECKENRIDGE   SUNNY     61  36  39 N10G21    30.39F
COMANCHE       SUNNY     60  45  59 N12       30.38R
$$

CENTRAL AND SOUTH CENTRAL TEXAS

CITY           SKY/WX    TMP DP  RH WIND       PRES   REMARKS
AUSTIN/BERGSTM MOSUNNY   69  48  47 N14       30.28R
WACO           SUNNY     64  43  46 N16G25    30.32R
HILLSBORO      SUNNY     63  42  45 N16       30.32R
TEMPLE         SUNNY     66  43  42 N17       30.31R
KILLEEN-GRAY   SUNNY     64  42  44 N12       30.33R
FORT HOOD      NOT AVBL
GEORGETOWN     SUNNY     66  43  42 N12       30.31R
LAGO VISTA     FAIR      67  47  48 N8        30.31R
SAN MARCOS     SUNNY     70  48  46 N14       30.30R
NEW BRAUNFELS  MOSUNNY   68  49  50 NE14      30.28R
RANDOLPH AFB   MOSUNNY   67  48  51 NE13G18   30.28R
SAN ANTONIO    MOSUNNY   68  51  54 N10       30.29R
STINSON        PTSUNNY   71  49  45 NE10      30.26R
PLEASANTON     NOT AVBL
LA GRANGE      MOSUNNY   69  51  51 N7        30.24S
GIDDINGS       MOSUNNY   68  47  46 N12       30.29R
$$

EAST TEXAS

CITY           SKY/WX    TMP DP  RH WIND       PRES   REMARKS
PARIS          SUNNY     59  39  47 N17G24    30.30R
CLARKSVILLE    NOT AVBL
TYLER          SUNNY     63  44  50 N15       30.26R
LONGVIEW       SUNNY     64  46  52 N14       30.23R
PALESTINE      SUNNY     65  46  50 N13       30.27R
NACOGDOCHES    SUNNY     66  45  45 N10G17    30.22R
$$

TEXAS HILL COUNTRY AND EDWARDS PLATEAU

CITY           SKY/WX    TMP DP  RH WIND       PRES   REMARKS
LLANO          SUNNY     66  43  42 NE8       30.37S
HORSESHOE BAY  FAIR      68  41  36 NE9G17    30.33R
KERRVILLE      SUNNY     66  45  46 NE13      30.32S
FREDERICKSBRG  SUNNY     65  43  44 NE14G20   30.32S
ROCKSPRINGS    SUNNY     66  41  39 CALM      30.35R
HONDO          SUNNY     67  50  54 NE20G26   30.30R
UVALDE         PTSUNNY   73  55  52 NE18      30.30R
DEL RIO        CLOUDY    73  47  39 E9        30.30R
$$

SOUTHEAST TEXAS

CITY           SKY/WX    TMP DP  RH WIND       PRES   REMARKS
COLLEGE STN    LGT RAIN  69  45  41 N16G22    30.25R
CALDWELL       SUNNY     66  43  42 N12G17    30.29S
CROCKETT       SUNNY     70  48  46 N10       30.27R
BRENHAM        MOSUNNY   70  49  48 N13       30.25R
HUNTSVILLE     SUNNY     68  47  46 N9        30.23R
CONROE         SUNNY     70  47  43 N10G21    30.21S
HOUSTON BUSH   MOSUNNY   73  48  41 N14G22    30.20R
HOUSTON HOBBY  PTSUNNY   73  45  36 N12       30.19R
PERLAND        PTSUNNY   74  45  35 NE13G20   30.20R
WHARTON        MOSUNNY   74  45  35 N14       30.21S
$$

THE UPPER TEXAS COAST

CITY           SKY/WX    TMP DP  RH WIND       PRES   REMARKS
ORANGE         SUNNY     68  49  50 N10       30.18R
PORT ARTHUR    SUNNY     72  47  40 N15       30.15S
GALVESTON      MOSUNNY   72  54  53 N14       30.18R
ANGLETON       MOSUNNY   73  49  42 N13G22    30.19R
BAY CITY         N/A     74  50  43 NE13      30.20R
$$

TEXAS COASTAL BEND, RIO GRANDE PLAINS DEEP SOUTH TEXAS

CITY           SKY/WX    TMP DP  RH WIND       PRES   REMARKS
VICTORIA       PTSUNNY   75  52  44 NE13      30.23R
BEEVILLE       CLOUDY    68  63  83 NE9       30.24R
ROCKPORT       CLOUDY    70  61  73 N12       30.20R
PORT ARANSAS   CLOUDY    71  63  74 N12       30.20R
PORT LAVACA    CLOUDY    72  55  56 N13       30.22R
CORPUS CHRISTI LGT RAIN  68  65  90 N13       30.21R
KINGSVILLE NAS LGT RAIN  69  69 100 N3        30.21S FOG
COTULLA        CLOUDY    69  64  84 NE8       30.27R
LAREDO         LGT RAIN  67  65  93 N8        30.28R
BROWNSVILLE    MOSUNNY   82  70  66 W5        30.14F
PORT ISABEL    PTSUNNY   80  69  69 W7        30.15R
HEBBRONVILLE   LGT RAIN  65  64  94 N8        30.25R
MCALLEN        PTSUNNY   75  66  73 N21G33    30.19R
WESLACO        PTSUNNY   79  69  69 N20G29    30.18R
FALFURRIAS     CLOUDY    66  65  97 NE8       30.21R
EDINBURG       CLOUDY    72  65  78 N18G28    30.22R
$$



USA.gov is the U.S. government's official web portal to all federal, state and local government web resources and services.